Location: *
(2.5500°S, 65.9667°W)
Time: 11:30:40
(UTC+00:00)

ARIANE 5 R/B - Pass Details

Date: 26 October 2021
Orbit: 236 x 33402 km, 1.8° (Epoch: 28 November)

Event Time Altitude Azimuth Distance (km) Brightness Sun altitude
Rises 21:13:59 0° 275° (W) 2,230 7.0 13.7°
Reaches altitude 10° 21:15:09 10° 276° (W) 1,660 6.5 13.4°
Maximum altitude 21:18:17 80° 4° (N) 917 3.6 12.6°
Drops below altitude 10° 21:35:25 10° 90° (E) 8,145 7.6 8.5°
Sets 21:56:43 0° 91° (E) 15,110 8.9 3.3°
